Zanesville, OH

1:58 PM EST on February 10, 2016 (GMT -0500)
Zanesville Municipal

Weather History for KZZV - July, 2013

Change the Weather History Date:

Sunday, July 7, 2013

  Actual Average Record
Temperature  
Mean Temperature 73 °F 73 °F  
Max Temperature 80 °F 84 °F 101 °F (2012)
Min Temperature 65 °F 62 °F 46 °F (1972)
Degree Days  
Heating Degree Days 0 0  
Month to date heating degree days 0 0  
Since 1 June heating degree days 18 32  
Since 1 July heating degree days 0 0  
Cooling Degree Days 8 8  
Month to date cooling degree days 71 56  
Year to date cooling degree days 335 268  
Since 1 June cooling degree days 227 214  
Growing Degree Days 22 (Base 50)    
Moisture  
Dew Point 65 °F    
Average Humidity 76    
Maximum Humidity 90    
Minimum Humidity 62    
Precipitation  
Precipitation 0.06 in 0.14 in 1.23 in (1993)
Month to date precipitation 1.30 0.95  
Year to date precipitation 18.14 20.45  
Sea Level Pressure  
Sea Level Pressure 30.09 in    
Wind  
Wind Speed 4 mph (SW)    
Max Wind Speed 22 mph    
Max Gust Speed 26 mph    
Visibility 10 miles    
Events Rain , Thunderstorm    
T = Trace of Precipitation, MM = Missing Value Source: NWS Daily Summary

Daily Weather History Graph

Daily Weather History Graph

Search for Another Location

Airport or City:

Trip Planner

Search our weather history database for the weather conditions in past years. The results will help you decide how hot, cold, wet, or windy it might be!

Date:

Astronomy

Jul. 07, 2013 Rise Set
Actual Time 6:06 AM EDT 8:58 PM EDT
Civil Twilight 5:33 AM EDT 9:30 PM EDT
Nautical Twilight 4:52 AM EDT 10:11 PM EDT
Astronomical Twilight 4:05 AM EDT 10:58 PM EDT
Moon 5:41 AM EDT (7/7) 8:21 PM EDT (7/7)
Length of Visible Light 15h 57m
Length of Day
14h 52m
Waning Crescent, 0% of the Moon is Illuminated
Jul 7
Waning Crescent
Jul 8
New
Jul 15
First Quarter
Jul 22
Full
Jul 29
Last Quarter

Hourly Weather History & Observations

Time (EDT) Temp. Dew Point Humidity Pressure Visibility Wind Dir Wind Speed Gust Speed Precip Events Conditions
12:53 AM 72.0 °F 68.0 °F 87% 30.11 in 10.0 mi SSW 4.6 mph - N/A   Scattered Clouds
1:53 AM 71.1 °F 66.9 °F 87% 30.11 in 10.0 mi South 3.5 mph - N/A   Clear
2:53 AM 70.0 °F 66.0 °F 87% 30.09 in 10.0 mi South 4.6 mph - N/A   Clear
3:53 AM 69.1 °F 64.9 °F 87% 30.09 in 10.0 mi SSE 4.6 mph - N/A   Clear
4:53 AM 68.0 °F 64.0 °F 87% 30.09 in 10.0 mi South 4.6 mph - N/A   Partly Cloudy
5:53 AM 68.0 °F 64.0 °F 87% 30.09 in 10.0 mi South 3.5 mph - N/A   Partly Cloudy
6:53 AM 68.0 °F 64.0 °F 87% 30.10 in 10.0 mi South 3.5 mph - N/A   Clear
7:53 AM 69.1 °F 64.9 °F 87% 30.11 in 10.0 mi South 4.6 mph - N/A   Mostly Cloudy
8:53 AM 69.1 °F 66.0 °F 90% 30.12 in 9.0 mi SSW 4.6 mph - 0.01 in Rain Light Rain
9:53 AM 70.0 °F 66.9 °F 90% 30.12 in 5.0 mi SSW 3.5 mph - 0.02 in Rain Light Rain
10:46 AM 71.6 °F 66.2 °F 83% 30.13 in 10.0 mi SW 4.6 mph - 0.00 in   Mostly Cloudy
10:53 AM 72.0 °F 66.9 °F 84% 30.12 in 10.0 mi Variable 3.5 mph - 0.00 in   Mostly Cloudy
11:44 AM 73.4 °F 66.2 °F 78% 30.14 in 10.0 mi West 5.8 mph - N/A   Mostly Cloudy
11:53 AM 73.9 °F 66.9 °F 79% 30.11 in 10.0 mi Variable 4.6 mph - N/A   Overcast
12:53 PM 73.0 °F 64.9 °F 76% 30.10 in 9.0 mi West 8.1 mph - N/A   Overcast
1:53 PM 73.9 °F 64.9 °F 73% 30.09 in 10.0 mi SW 3.5 mph - 0.00 in   Overcast
2:53 PM 77.0 °F 66.0 °F 69% 30.07 in 10.0 mi SW 4.6 mph - N/A   Partly Cloudy
3:10 PM 77.0 °F 64.4 °F 65% 30.09 in 10.0 mi Variable 3.5 mph - N/A   Mostly Cloudy
3:31 PM 78.8 °F 66.2 °F 65% 30.08 in 10.0 mi West 5.8 mph - N/A   Mostly Cloudy
3:53 PM 79.0 °F 66.0 °F 64% 30.05 in 10.0 mi WSW 4.6 mph - N/A   Mostly Cloudy
4:53 PM 79.0 °F 66.0 °F 64% 30.04 in 10.0 mi West 4.6 mph - N/A   Mostly Cloudy
5:53 PM 79.0 °F 64.9 °F 62% 30.03 in 10.0 mi WSW 3.5 mph - N/A   Scattered Clouds
6:53 PM 79.0 °F 64.0 °F 60% 30.03 in 10.0 mi WSW 6.9 mph - N/A   Clear
7:53 PM 78.1 °F 64.9 °F 64% 30.04 in 10.0 mi Calm Calm - N/A   Clear
8:53 PM 75.0 °F 66.0 °F 73% 30.06 in 10.0 mi Calm Calm - N/A   Clear
9:41 PM 73.4 °F 66.2 °F 78% 30.08 in 10.0 mi SSW 4.6 mph - N/A Thunderstorm Scattered Clouds
9:53 PM 73.0 °F 66.0 °F 79% 30.07 in 10.0 mi South 4.6 mph - N/A Thunderstorm Thunderstorm
10:41 PM 68.0 °F 60.8 °F 78% 30.11 in 9.0 mi North 11.5 mph 21.9 mph 0.01 in Rain , Thunderstorm Light Thunderstorms and Rain
10:53 PM 66.0 °F 61.0 °F 84% 30.10 in 8.0 mi North 3.5 mph - 0.01 in Rain , Thunderstorm Light Thunderstorms and Rain
11:46 PM 66.2 °F 62.6 °F 88% 30.12 in 10.0 mi SSE 3.5 mph - 0.02 in   Mostly Cloudy
11:53 PM 66.0 °F 62.1 °F 87% 30.10 in 10.0 mi SE 3.5 mph - 0.02 in   Mostly Cloudy